EUTELSAT 21B

Last updated on Sun Apr 12 2026 00:02:53 GMT+0000 (Coordinated Universal Time)

1 38992U 12062B 26101.23974255 .00000131 00000+0 00000+0 0 9992 2 38992 0.0706 354.9172 0002946 19.9880 292.4619 1.00269724 49156
UTC large
Height (km)
Speed (km/s)
/
Latitude / Longitude
Inclination (degrees)
Orbital Period (minutes)
Azimuth
Elevation
Range (km)
Doppler Factor

Next 0 passes for location: London (51.5072 / 0.1276)

Sorry there are no passes over London.
EUTELSAT 21B